Regional Weather Roundup
Issued by NWS

Home | Current Version | Previous Version | Graphics & Text | Print | Product List | Glossary On
Versions: 1 2 3 4 5 6 7 8 9 10 11 12 13 14 15 16 17 18 19 20 21 22 23 24 25 26 27 28 29 30 31 32 33 34 35 36 37 38 39 40 41 42 43 44 45 46 47 48 49 50
000
ASUS43 KFSD 020502
RWRSD

WEATHER ROUNDUP FOR SOUTH DAKOTA
NATIONAL WEATHER SERVICE SIOUX FALLS SD
1100 PM CST SUN MAR 01 2015

NOTE: "FAIR" INDICATES FEW OR NO CLOUDS BELOW 12,000 FEET WITH NO
SIGNIFICANT WEATHER AND/OR OBSTRUCTIONS TO VISIBILITY.


SDZ001>005-009-010-012>017-020600-
NORTHWEST AND NORTH CENTRAL SOUTH DAKOTA

CITY           SKY/WX    TMP DP  RH WIND       PRES   REMARKS
BUFFALO          N/A     11   5  77 S6        30.17F WCI   1
FAITH            N/A     18   5  57 E6        30.31F WCI  10
MOBRIDGE       PTCLDY    12   8  84 SE3       30.35F
$$

SDZ012>016-024>037-041>051-057-063-072>074-020600-
SOUTHWEST AND SOUTH CENTRAL SOUTH DAKOTA

CITY           SKY/WX    TMP DP  RH WIND       PRES   REMARKS
RAPID CTY ARPT PTCLDY    13   6  74 CALM      30.30F
PIERRE         PTCLDY    14  11  87 E3        30.40S
CUSTER         PTCLDY     7   3  84 CALM      30.15S
ELLSWORTH AFB  PTCLDY    15   7  71 SW3       30.29S
PHILIP         PTCLDY     7   1  76 W6        30.37S WCI  -3
PINE RIDGE     MOCLDY    15   9  76 CALM      30.31S
WINNER         FAIR      20   4  50 S5        30.39S WCI  13
$$

SDZ004>011-016>023-039-040-020600-
NORTHEAST SOUTH DAKOTA

CITY           SKY/WX    TMP DP  RH WIND       PRES   REMARKS
ABERDEEN       CLEAR      5   0  79 NW3       30.43R
WATERTOWN      CLEAR     11   6  81 NW7       30.39R WCI   0
SISSETON         N/A     14   6  70 NW10      30.41R WCI   1
$$

SDZ017-020-022-023-036>040-048>070-020600-
SOUTHEAST SOUTH DAKOTA

CITY           SKY/WX    TMP DP  RH WIND       PRES   REMARKS
SIOUX FALLS    CLEAR     15  11  83 NW6       30.43R WCI   6
HURON          CLEAR      9   6  88 CALM      30.45R
MITCHELL       PTCLDY    14  11  87 CALM      30.46R
YANKTON        CLEAR     18  10  73 CALM      30.47R
$$

ABBREVIATIONS USED IN REMARKS
   TC - TEMPERATURE IN CELSIUS
  WCI - WIND CHILL INDEX
   HX - HEAT INDEX
  VSB - VISIBILITY



USA.gov is the U.S. government's official web portal to all federal, state and local government web resources and services.